• In Czech Republic
  • List of Countries
  • For 7 days
  • Water Temperature
  • Satellite Maps
  • Weather Map
  • Weather Widgets
  • user-avatar
    Login

    Hourly Weather Salgotarjan

    Today, 22 July, Sunday

    Time Temperature Precipitation Wind Pressure Humidity
    00:00 +20°C° 1 mm 1 mps 728 mmHg 85%
    01:00 +20°C° 1 mm 1 mps 728 mmHg 87%
    02:00 +19°C° 1.3 mm 1 mps 728 mmHg 89%
    03:00 +19°C° 1.3 mm 1 mps 728 mmHg 91%
    04:00 +19°C° 1.3 mm 1 mps 728 mmHg 93%
    05:00 +20°C° 0 mm 1 mps 728 mmHg 91%
    06:00 +21°C° 0 mm 1 mps 728 mmHg 89%
    07:00 +22°C° 0 mm 1 mps 728 mmHg 87%
    08:00 +23°C° 0.7 mm 1 mps 728 mmHg 81%
    09:00 +25°C° 0.7 mm 1 mps 728 mmHg 75%
    10:00 +26°C° 0.7 mm 1 mps 728 mmHg 68%
    11:00 +26°C° 1.4 mm 1 mps 728 mmHg 70%
    12:00 +26°C° 1.4 mm 2 mps 727 mmHg 71%
    13:00 +26°C° 1.4 mm 2 mps 727 mmHg 72%
    14:00 +26°C° 0.2 mm 2 mps 727 mmHg 69%
    15:00 +26°C° 0.2 mm 1 mps 727 mmHg 67%
    16:00 +27°C° 0.2 mm 1 mps 727 mmHg 65%
    17:00 +25°C° 0.4 mm 1 mps 727 mmHg 70%
    18:00 +24°C° 0.4 mm 1 mps 727 mmHg 75%
    19:00 +23°C° 0.4 mm 1 mps 726 mmHg 80%
    20:00 +22°C° 0.4 mm 1 mps 726 mmHg 83%
    21:00 +21°C° 0.4 mm 1 mps 726 mmHg 85%
    22:00 +21°C° 0.4 mm 1 mps 726 mmHg 87%
    23:00 +20°C° 0.1 mm 1 mps 726 mmHg 89%

    Tomorrow, 23 July, Monday

    Time Temperature Precipitation Wind Pressure Humidity
    00:00 +20°C° 0.1 mm 1 mps 727 mmHg 90%
    01:00 +19°C° 0.1 mm 1 mps 727 mmHg 91%
    02:00 +19°C° 0.3 mm 1 mps 726 mmHg 92%
    03:00 +19°C° 0.3 mm 1 mps 726 mmHg 93%
    04:00 +17°C° 0.3 mm 2 mps 726 mmHg 93%
    05:00 +19°C° 0.3 mm 2 mps 726 mmHg 89%
    06:00 +20°C° 0.3 mm 2 mps 727 mmHg 85%
    07:00 +21°C° 0.3 mm 2 mps 727 mmHg 81%
    08:00 +24°C° 0.5 mm 3 mps 727 mmHg 74%
    09:00 +25°C° 0.5 mm 3 mps 727 mmHg 67%
    10:00 +27°C° 0.5 mm 4 mps 727 mmHg 60%
    11:00 +28°C° 0.1 mm 3 mps 727 mmHg 55%
    12:00 +29°C° 0.1 mm 3 mps 727 mmHg 50%
    13:00 +30°C° 0.1 mm 3 mps 727 mmHg 45%
    14:00 +29°C° 0 mm 3 mps 727 mmHg 46%
    15:00 +29°C° 0 mm 3 mps 727 mmHg 47%
    16:00 +29°C° 0 mm 3 mps 727 mmHg 48%
    17:00 +28°C° 0 mm 3 mps 727 mmHg 54%
    18:00 +26°C° 0 mm 3 mps 727 mmHg 61%
    19:00 +24°C° 0 mm 2 mps 727 mmHg 67%
    20:00 +23°C° 0 mm 2 mps 728 mmHg 70%
    21:00 +21°C° 0 mm 2 mps 728 mmHg 73%
    22:00 +20°C° 0 mm 2 mps 728 mmHg 77%
    23:00 +19°C° 0 mm 2 mps 728 mmHg 78%

    Day after tomorrow, 24 July, Tuesday

    Time Temperature Precipitation Wind Pressure Humidity
    00:00 +19°C° 0 mm 2 mps 728 mmHg 80%
    01:00 +18°C° 0 mm 2 mps 728 mmHg 82%
    02:00 +18°C° 0 mm 2 mps 728 mmHg 83%
    03:00 +17°C° 0 mm 2 mps 728 mmHg 84%
    04:00 +17°C° 0 mm 2 mps 728 mmHg 86%
    05:00 +18°C° 0 mm 2 mps 728 mmHg 80%
    06:00 +20°C° 0 mm 2 mps 728 mmHg 75%
    07:00 +21°C° 0 mm 3 mps 729 mmHg 70%
    08:00 +24°C° 0 mm 3 mps 729 mmHg 63%
    09:00 +26°C° 0 mm 3 mps 729 mmHg 56%
    10:00 +27°C° 0 mm 3 mps 729 mmHg 49%
    11:00 +28°C° 0 mm 3 mps 729 mmHg 46%
    12:00 +29°C° 0 mm 3 mps 729 mmHg 43%
    13:00 +30°C° 0 mm 3 mps 728 mmHg 41%
    14:00 +30°C° 0 mm 3 mps 728 mmHg 41%
    15:00 +30°C° 0 mm 3 mps 728 mmHg 42%
    16:00 +30°C° 0 mm 3 mps 728 mmHg 42%
    17:00 +28°C° 0 mm 3 mps 728 mmHg 49%
    18:00 +26°C° 0 mm 2 mps 728 mmHg 56%
    19:00 +24°C° 0 mm 2 mps 728 mmHg 63%
    20:00 +23°C° 0 mm 2 mps 728 mmHg 67%
    21:00 +21°C° 0 mm 2 mps 728 mmHg 70%
    22:00 +20°C° 0 mm 2 mps 729 mmHg 73%
    23:00 +19°C° 0 mm 2 mps 729 mmHg 75%

    25 July, Wednesday

    Time Temperature Precipitation Wind Pressure Humidity
    00:00 +19°C° 0 mm 2 mps 729 mmHg 77%
    01:00 +18°C° 0 mm 2 mps 728 mmHg 79%
    02:00 +18°C° 0 mm 2 mps 728 mmHg 80%
    03:00 +17°C° 0 mm 2 mps 728 mmHg 81%
    04:00 +17°C° 0 mm 2 mps 729 mmHg 82%
    05:00 +19°C° 0 mm 2 mps 729 mmHg 77%
    06:00 +20°C° 0 mm 2 mps 729 mmHg 72%
    07:00 +23°C° 0 mm 2 mps 730 mmHg 67%
    08:00 +25°C° 0.1 mm 2 mps 730 mmHg 62%
    09:00 +26°C° 0.1 mm 2 mps 730 mmHg 57%
    10:00 +28°C° 0.1 mm 3 mps 730 mmHg 52%
    11:00 +28°C° 0.8 mm 2 mps 730 mmHg 53%
    12:00 +28°C° 0.8 mm 2 mps 729 mmHg 55%
    13:00 +28°C° 0.8 mm 2 mps 729 mmHg 57%
    14:00 +28°C° 0.8 mm 2 mps 729 mmHg 57%
    15:00 +28°C° 0.8 mm 2 mps 729 mmHg 57%
    16:00 +28°C° 0.8 mm 2 mps 729 mmHg 57%
    17:00 +27°C° 0.4 mm 2 mps 729 mmHg 62%
    18:00 +25°C° 0.4 mm 2 mps 729 mmHg 67%
    19:00 +24°C° 0.4 mm 2 mps 729 mmHg 72%
    20:00 +23°C° 0 mm 2 mps 729 mmHg 75%
    21:00 +21°C° 0 mm 2 mps 729 mmHg 77%
    22:00 +20°C° 0 mm 2 mps 729 mmHg 80%
    23:00 +20°C° 0 mm 2 mps 729 mmHg 81%

    26 July, Thursday

    Time Temperature Precipitation Wind Pressure Humidity
    00:00 +19°C° 0 mm 2 mps 729 mmHg 82%
    01:00 +19°C° 0 mm 2 mps 729 mmHg 84%
    02:00 +18°C° 0 mm 2 mps 729 mmHg 84%
    03:00 +18°C° 0 mm 2 mps 729 mmHg 85%
    04:00 +18°C° 0 mm 2 mps 729 mmHg 85%
    05:00 +20°C° 0 mm 2 mps 730 mmHg 80%
    06:00 +21°C° 0 mm 2 mps 730 mmHg 75%
    07:00 +24°C° 0 mm 2 mps 730 mmHg 69%
    08:00 +26°C° 0 mm 2 mps 730 mmHg 62%
    09:00 +27°C° 0 mm 2 mps 730 mmHg 55%
    10:00 +29°C° 0 mm 2 mps 730 mmHg 48%
    11:00 +30°C° 0 mm 2 mps 730 mmHg 46%
    12:00 +30°C° 0 mm 2 mps 730 mmHg 44%
    13:00 +31°C° 0 mm 2 mps 730 mmHg 42%
    14:00 +30°C° 0 mm 2 mps 730 mmHg 44%
    15:00 +30°C° 0 mm 2 mps 730 mmHg 46%
    16:00 +30°C° 0 mm 2 mps 730 mmHg 48%
    17:00 +28°C° 0 mm 2 mps 729 mmHg 53%
    18:00 +27°C° 0 mm 2 mps 729 mmHg 59%
    19:00 +25°C° 0 mm 2 mps 729 mmHg 64%
    20:00 +24°C° 0 mm 2 mps 730 mmHg 68%
    21:00 +23°C° 0 mm 2 mps 730 mmHg 72%
    22:00 +21°C° 0 mm 2 mps 730 mmHg 77%
    23:00 +20°C° 0 mm 2 mps 730 mmHg 78%

    27 July, Friday

    Time Temperature Precipitation Wind Pressure Humidity
    00:00 +20°C° 0 mm 2 mps 730 mmHg 80%
    01:00 +19°C° 0 mm 2 mps 730 mmHg 82%
    02:00 +20°C° 0 mm 1 mps 730 mmHg 82%
    03:00 +19°C° 0 mm 1 mps 730 mmHg 83%
    04:00 +19°C° 0 mm 1 mps 730 mmHg 84%
    05:00 +21°C° 0 mm 1 mps 730 mmHg 79%
    06:00 +22°C° 0 mm 1 mps 730 mmHg 74%
    07:00 +24°C° 0 mm 1 mps 730 mmHg 69%
    08:00 +26°C° 0 mm 1 mps 730 mmHg 63%
    09:00 +28°C° 0 mm 1 mps 731 mmHg 57%
    10:00 +29°C° 0 mm 1 mps 731 mmHg 51%
    11:00 +30°C° 0 mm 1 mps 730 mmHg 48%
    12:00 +31°C° 0 mm 1 mps 730 mmHg 46%
    13:00 +32°C° 0 mm 1 mps 730 mmHg 43%
    14:00 +32°C° 0.1 mm 1 mps 730 mmHg 44%
    15:00 +31°C° 0.1 mm 1 mps 730 mmHg 44%
    16:00 +31°C° 0.1 mm 1 mps 730 mmHg 44%
    17:00 +30°C° 0 mm 1 mps 730 mmHg 50%
    18:00 +28°C° 0 mm 1 mps 730 mmHg 56%
    19:00 +26°C° 0 mm 1 mps 729 mmHg 62%
    20:00 +25°C° 0 mm 1 mps 730 mmHg 66%
    21:00 +24°C° 0 mm 1 mps 730 mmHg 69%
    22:00 +23°C° 0 mm 1 mps 730 mmHg 73%
    23:00 +23°C° 0 mm 1 mps 730 mmHg 75%
    Show more